Information on these data can be found in provided Readme document
Contact Info: Zachary Fasnacht (zachary.fasnacht@ssaihq.com); Nickolay Krotkov (nickolay.a.krotkov@nasa.gov); Lok Lamsal (lok.lamsal@nasa.gov)

FillValue: -999.
ScaleFactor: 1e15
Units: molecules/cm^2

Date(yyyy-mm-dd),City,Country,LonCenter,LatCenter,BoundingCoordinates,Median,Q1,Q3,Mean,Baseline_Median,Baseline_Q1,Baseline_Q3,Baseline_Mean,NumGoodSamples,NumTotalSamples
2015-01-01,Dakar,Senegal,-17.4667,14.6667,[-17.9667 14.1667 -16.9667 15.1667],0.707,0.172,1.546,0.911,1.149,0.528,1.93,1.301,146.0,519.0
2015-01-02,Dakar,Senegal,-17.4667,14.6667,[-17.9667 14.1667 -16.9667 15.1667],0.833,0.133,1.762,1.066,1.216,0.58,2.064,1.366,119.0,538.0
2015-01-03,Dakar,Senegal,-17.4667,14.6667,[-17.9667 14.1667 -16.9667 15.1667],0.861,0.161,1.762,1.061,1.238,0.627,2.105,1.4,121.0,517.0
2015-01-04,Dakar,Senegal,-17.4667,14.6667,[-17.9667 14.1667 -16.9667 15.1667],0.972,0.198,1.783,1.177,1.248,0.607,2.102,1.413,110.0,543.0
2015-01-05,Dakar,Senegal,-17.4667,14.6667,[-17.9667 14.1667 -16.9667 15.1667],1.292,0.365,1.788,1.286,1.278,0.607,2.121,1.415,80.0,532.0
2015-01-06,Dakar,Senegal,-17.4667,14.6667,[-17.9667 14.1667 -16.9667 15.1667],1.292,0.365,1.788,1.286,1.332,0.609,2.088,1.426,80.0,540.0
2015-01-07,Dakar,Senegal,-17.4667,14.6667,[-17.9667 14.1667 -16.9667 15.1667],0.972,0.221,1.783,1.192,1.329,0.604,2.065,1.43,60.0,539.0
2015-01-08,Dakar,Senegal,-17.4667,14.6667,[-17.9667 14.1667 -16.9667 15.1667],0.972,0.088,1.762,1.139,1.293,0.537,1.978,1.364,78.0,522.0
2015-01-09,Dakar,Senegal,-17.4667,14.6667,[-17.9667 14.1667 -16.9667 15.1667],0.926,0.088,1.762,1.132,1.272,0.52,1.957,1.35,74.0,500.0
2015-01-10,Dakar,Senegal,-17.4667,14.6667,[-17.9667 14.1667 -16.9667 15.1667],0.926,0.088,1.762,1.132,1.198,0.468,1.855,1.305,74.0,447.0
2015-01-11,Dakar,Senegal,-17.4667,14.6667,[-17.9667 14.1667 -16.9667 15.1667],0.752,0.088,2.088,1.12,1.117,0.403,1.764,1.193,66.0,476.0
2015-01-12,Dakar,Senegal,-17.4667,14.6667,[-17.9667 14.1667 -16.9667 15.1667],0.685,0.389,1.322,0.977,1.089,0.405,1.682,1.15,87.0,458.0
2015-01-13,Dakar,Senegal,-17.4667,14.6667,[-17.9667 14.1667 -16.9667 15.1667],0.809,0.471,1.322,1.002,1.017,0.385,1.622,1.097,119.0,471.0
2015-01-14,Dakar,Senegal,-17.4667,14.6667,[-17.9667 14.1667 -16.9667 15.1667],0.859,0.471,1.315,0.814,1.037,0.426,1.642,1.082,109.0,467.0
2015-01-15,Dakar,Senegal,-17.4667,14.6667,[-17.9667 14.1667 -16.9667 15.1667],0.859,0.471,1.315,0.814,1.056,0.445,1.623,1.081,109.0,458.0
2015-01-16,Dakar,Senegal,-17.4667,14.6667,[-17.9667 14.1667 -16.9667 15.1667],0.862,0.492,1.322,0.91,1.013,0.436,1.616,1.069,95.0,467.0
2015-01-17,Dakar,Senegal,-17.4667,14.6667,[-17.9667 14.1667 -16.9667 15.1667],0.862,0.492,1.322,0.959,1.001,0.432,1.597,1.066,101.0,445.0
2015-01-18,Dakar,Senegal,-17.4667,14.6667,[-17.9667 14.1667 -16.9667 15.1667],0.862,0.492,1.331,0.963,0.988,0.438,1.589,1.055,99.0,465.0
2015-01-19,Dakar,Senegal,-17.4667,14.6667,[-17.9667 14.1667 -16.9667 15.1667],0.884,0.471,1.589,1.009,0.978,0.418,1.604,1.037,122.0,445.0
2015-01-20,Dakar,Senegal,-17.4667,14.6667,[-17.9667 14.1667 -16.9667 15.1667],0.884,0.471,1.589,1.006,0.992,0.446,1.636,1.063,124.0,468.0
2015-01-21,Dakar,Senegal,-17.4667,14.6667,[-17.9667 14.1667 -16.9667 15.1667],0.884,0.453,1.589,0.997,0.917,0.352,1.567,0.998,128.0,456.0
2015-01-22,Dakar,Senegal,-17.4667,14.6667,[-17.9667 14.1667 -16.9667 15.1667],0.884,0.453,1.589,0.997,0.983,0.434,1.587,1.058,131.0,466.0
2015-01-23,Dakar,Senegal,-17.4667,14.6667,[-17.9667 14.1667 -16.9667 15.1667],0.884,0.471,1.605,1.011,0.922,0.415,1.538,1.043,113.0,466.0
2015-01-24,Dakar,Senegal,-17.4667,14.6667,[-17.9667 14.1667 -16.9667 15.1667],0.862,0.453,1.589,0.965,0.965,0.427,1.611,1.059,137.0,495.0
2015-01-25,Dakar,Senegal,-17.4667,14.6667,[-17.9667 14.1667 -16.9667 15.1667],0.862,0.453,1.589,0.965,0.969,0.43,1.629,1.063,137.0,541.0
2015-01-26,Dakar,Senegal,-17.4667,14.6667,[-17.9667 14.1667 -16.9667 15.1667],0.862,0.385,1.47,0.932,0.978,0.486,1.644,1.094,156.0,510.0
2015-01-27,Dakar,Senegal,-17.4667,14.6667,[-17.9667 14.1667 -16.9667 15.1667],0.894,0.327,1.624,0.974,0.943,0.436,1.62,1.065,135.0,537.0
2015-01-28,Dakar,Senegal,-17.4667,14.6667,[-17.9667 14.1667 -16.9667 15.1667],0.908,0.307,1.771,1.054,0.956,0.437,1.656,1.093,122.0,520.0
2015-01-29,Dakar,Senegal,-17.4667,14.6667,[-17.9667 14.1667 -16.9667 15.1667],0.85,0.295,1.703,1.001,0.911,0.408,1.606,1.051,124.0,538.0
2015-01-30,Dakar,Senegal,-17.4667,14.6667,[-17.9667 14.1667 -16.9667 15.1667],0.85,0.295,1.771,1.02,0.904,0.421,1.572,1.044,127.0,538.0
2015-01-31,Dakar,Senegal,-17.4667,14.6667,[-17.9667 14.1667 -16.9667 15.1667],0.733,0.253,1.703,0.971,0.885,0.425,1.548,1.039,151.0,532.0
2015-02-01,Dakar,Senegal,-17.4667,14.6667,[-17.9667 14.1667 -16.9667 15.1667],0.733,0.253,1.693,0.95,0.879,0.406,1.564,1.037,145.0,543.0
2015-02-02,Dakar,Senegal,-17.4667,14.6667,[-17.9667 14.1667 -16.9667 15.1667],0.894,0.285,1.703,0.983,0.916,0.408,1.551,1.04,166.0,522.0
2015-02-03,Dakar,Senegal,-17.4667,14.6667,[-17.9667 14.1667 -16.9667 15.1667],0.797,0.24,1.676,0.942,0.894,0.411,1.552,1.04,140.0,543.0
2015-02-04,Dakar,Senegal,-17.4667,14.6667,[-17.9667 14.1667 -16.9667 15.1667],0.9,0.292,1.423,0.937,0.912,0.411,1.478,1.016,164.0,524.0
2015-02-05,Dakar,Senegal,-17.4667,14.6667,[-17.9667 14.1667 -16.9667 15.1667],0.908,0.295,1.423,0.94,0.922,0.417,1.474,1.03,162.0,548.0
2015-02-06,Dakar,Senegal,-17.4667,14.6667,[-17.9667 14.1667 -16.9667 15.1667],0.894,0.305,1.423,0.929,0.867,0.341,1.447,0.964,178.0,537.0
2015-02-07,Dakar,Senegal,-17.4667,14.6667,[-17.9667 14.1667 -16.9667 15.1667],0.9,0.305,1.465,0.953,0.885,0.375,1.455,0.983,188.0,546.0
2015-02-08,Dakar,Senegal,-17.4667,14.6667,[-17.9667 14.1667 -16.9667 15.1667],0.914,0.307,1.465,0.981,0.835,0.348,1.379,0.947,164.0,547.0
2015-02-09,Dakar,Senegal,-17.4667,14.6667,[-17.9667 14.1667 -16.9667 15.1667],0.92,0.307,1.492,1.007,0.829,0.329,1.362,0.927,189.0,531.0
2015-02-10,Dakar,Senegal,-17.4667,14.6667,[-17.9667 14.1667 -16.9667 15.1667],0.959,0.307,1.579,1.042,0.847,0.339,1.388,0.948,170.0,508.0
2015-02-11,Dakar,Senegal,-17.4667,14.6667,[-17.9667 14.1667 -16.9667 15.1667],0.959,0.307,1.579,1.042,0.886,0.375,1.53,0.984,170.0,455.0
2015-02-12,Dakar,Senegal,-17.4667,14.6667,[-17.9667 14.1667 -16.9667 15.1667],0.92,0.369,1.465,0.968,0.841,0.351,1.371,0.928,148.0,482.0
2015-02-13,Dakar,Senegal,-17.4667,14.6667,[-17.9667 14.1667 -16.9667 15.1667],0.931,0.379,1.371,0.967,0.844,0.336,1.355,0.929,149.0,461.0
2015-02-14,Dakar,Senegal,-17.4667,14.6667,[-17.9667 14.1667 -16.9667 15.1667],0.959,0.398,1.371,0.956,0.806,0.287,1.344,0.878,179.0,475.0
2015-02-15,Dakar,Senegal,-17.4667,14.6667,[-17.9667 14.1667 -16.9667 15.1667],0.92,0.384,1.325,0.946,0.782,0.272,1.293,0.835,172.0,474.0
2015-02-16,Dakar,Senegal,-17.4667,14.6667,[-17.9667 14.1667 -16.9667 15.1667],0.92,0.367,1.371,0.947,0.787,0.28,1.313,0.828,197.0,466.0
2015-02-17,Dakar,Senegal,-17.4667,14.6667,[-17.9667 14.1667 -16.9667 15.1667],0.914,0.335,1.325,0.912,0.768,0.269,1.294,0.815,194.0,474.0
2015-02-18,Dakar,Senegal,-17.4667,14.6667,[-17.9667 14.1667 -16.9667 15.1667],0.888,0.305,1.325,0.864,0.788,0.278,1.318,0.829,215.0,452.0
2015-02-19,Dakar,Senegal,-17.4667,14.6667,[-17.9667 14.1667 -16.9667 15.1667],0.774,0.135,1.371,0.844,0.756,0.257,1.316,0.817,189.0,473.0
2015-02-20,Dakar,Senegal,-17.4667,14.6667,[-17.9667 14.1667 -16.9667 15.1667],0.792,0.319,1.325,0.85,0.755,0.295,1.322,0.819,212.0,452.0
2015-02-21,Dakar,Senegal,-17.4667,14.6667,[-17.9667 14.1667 -16.9667 15.1667],0.779,0.319,1.3,0.847,0.759,0.287,1.277,0.808,222.0,477.0
2015-02-22,Dakar,Senegal,-17.4667,14.6667,[-17.9667 14.1667 -16.9667 15.1667],0.779,0.317,1.291,0.823,0.734,0.268,1.272,0.789,231.0,464.0
2015-02-23,Dakar,Senegal,-17.4667,14.6667,[-17.9667 14.1667 -16.9667 15.1667],0.789,0.317,1.3,0.846,0.733,0.28,1.255,0.791,261.0,472.0
2015-02-24,Dakar,Senegal,-17.4667,14.6667,[-17.9667 14.1667 -16.9667 15.1667],0.773,0.296,1.205,0.818,0.73,0.277,1.195,0.773,264.0,472.0
2015-02-25,Dakar,Senegal,-17.4667,14.6667,[-17.9667 14.1667 -16.9667 15.1667],0.774,0.317,1.194,0.822,0.706,0.255,1.192,0.759,288.0,502.0
2015-02-26,Dakar,Senegal,-17.4667,14.6667,[-17.9667 14.1667 -16.9667 15.1667],0.774,0.317,1.205,0.827,0.695,0.247,1.174,0.745,294.0,548.0
2015-02-27,Dakar,Senegal,-17.4667,14.6667,[-17.9667 14.1667 -16.9667 15.1667],0.83,0.327,1.246,0.841,0.736,0.239,1.219,0.768,315.0,517.0
2015-02-28,Dakar,Senegal,-17.4667,14.6667,[-17.9667 14.1667 -16.9667 15.1667],0.83,0.331,1.246,0.852,0.717,0.241,1.175,0.746,296.0,547.0
2015-03-01,Dakar,Senegal,-17.4667,14.6667,[-17.9667 14.1667 -16.9667 15.1667],0.83,0.331,1.175,0.841,0.734,0.249,1.188,0.766,280.0,529.0
2015-03-02,Dakar,Senegal,-17.4667,14.6667,[-17.9667 14.1667 -16.9667 15.1667],0.839,0.331,1.176,0.853,0.733,0.239,1.209,0.78,297.0,543.0
2015-03-03,Dakar,Senegal,-17.4667,14.6667,[-17.9667 14.1667 -16.9667 15.1667],0.844,0.331,1.173,0.845,0.737,0.254,1.185,0.777,289.0,541.0
2015-03-04,Dakar,Senegal,-17.4667,14.6667,[-17.9667 14.1667 -16.9667 15.1667],0.839,0.327,1.153,0.828,0.735,0.254,1.191,0.781,290.0,535.0
2015-03-05,Dakar,Senegal,-17.4667,14.6667,[-17.9667 14.1667 -16.9667 15.1667],0.854,0.331,1.173,0.866,0.714,0.242,1.163,0.763,288.0,545.0
2015-03-06,Dakar,Senegal,-17.4667,14.6667,[-17.9667 14.1667 -16.9667 15.1667],0.846,0.327,1.173,0.876,0.715,0.242,1.161,0.767,310.0,523.0
2015-03-07,Dakar,Senegal,-17.4667,14.6667,[-17.9667 14.1667 -16.9667 15.1667],0.839,0.251,1.252,0.88,0.7,0.197,1.173,0.746,285.0,544.0
2015-03-08,Dakar,Senegal,-17.4667,14.6667,[-17.9667 14.1667 -16.9667 15.1667],0.832,0.249,1.252,0.873,0.701,0.198,1.21,0.761,282.0,523.0
2015-03-09,Dakar,Senegal,-17.4667,14.6667,[-17.9667 14.1667 -16.9667 15.1667],0.832,0.249,1.252,0.867,0.71,0.219,1.24,0.775,292.0,548.0
2015-03-10,Dakar,Senegal,-17.4667,14.6667,[-17.9667 14.1667 -16.9667 15.1667],0.839,0.266,1.278,0.862,0.722,0.233,1.25,0.785,283.0,537.0
2015-03-11,Dakar,Senegal,-17.4667,14.6667,[-17.9667 14.1667 -16.9667 15.1667],0.832,0.237,1.252,0.835,0.718,0.232,1.246,0.779,284.0,546.0
2015-03-12,Dakar,Senegal,-17.4667,14.6667,[-17.9667 14.1667 -16.9667 15.1667],0.832,0.214,1.252,0.827,0.719,0.213,1.27,0.783,286.0,544.0
2015-03-13,Dakar,Senegal,-17.4667,14.6667,[-17.9667 14.1667 -16.9667 15.1667],0.812,0.19,1.227,0.803,0.721,0.226,1.232,0.785,305.0,528.0
2015-03-14,Dakar,Senegal,-17.4667,14.6667,[-17.9667 14.1667 -16.9667 15.1667],0.78,0.18,1.173,0.785,0.708,0.249,1.214,0.777,284.0,506.0
2015-03-15,Dakar,Senegal,-17.4667,14.6667,[-17.9667 14.1667 -16.9667 15.1667],0.78,0.18,1.173,0.785,0.747,0.255,1.236,0.809,284.0,452.0
2015-03-16,Dakar,Senegal,-17.4667,14.6667,[-17.9667 14.1667 -16.9667 15.1667],0.763,0.151,1.361,0.779,0.716,0.241,1.205,0.778,267.0,481.0
2015-03-17,Dakar,Senegal,-17.4667,14.6667,[-17.9667 14.1667 -16.9667 15.1667],0.795,0.18,1.199,0.792,0.727,0.265,1.176,0.785,252.0,462.0
2015-03-18,Dakar,Senegal,-17.4667,14.6667,[-17.9667 14.1667 -16.9667 15.1667],0.78,0.18,1.199,0.789,0.725,0.252,1.2,0.781,267.0,477.0
2015-03-19,Dakar,Senegal,-17.4667,14.6667,[-17.9667 14.1667 -16.9667 15.1667],0.788,0.188,1.172,0.801,0.702,0.257,1.207,0.784,265.0,476.0
2015-03-20,Dakar,Senegal,-17.4667,14.6667,[-17.9667 14.1667 -16.9667 15.1667],0.795,0.19,1.206,0.815,0.73,0.266,1.239,0.805,272.0,468.0
2015-03-21,Dakar,Senegal,-17.4667,14.6667,[-17.9667 14.1667 -16.9667 15.1667],0.784,0.218,1.199,0.784,0.72,0.265,1.226,0.786,270.0,476.0
2015-03-22,Dakar,Senegal,-17.4667,14.6667,[-17.9667 14.1667 -16.9667 15.1667],0.778,0.18,1.206,0.761,0.736,0.268,1.223,0.793,291.0,455.0
2015-03-23,Dakar,Senegal,-17.4667,14.6667,[-17.9667 14.1667 -16.9667 15.1667],0.731,0.18,1.263,0.741,0.713,0.26,1.23,0.767,265.0,475.0
2015-03-24,Dakar,Senegal,-17.4667,14.6667,[-17.9667 14.1667 -16.9667 15.1667],0.782,0.229,1.117,0.752,0.723,0.241,1.175,0.743,258.0,452.0
2015-03-25,Dakar,Senegal,-17.4667,14.6667,[-17.9667 14.1667 -16.9667 15.1667],0.736,0.214,1.106,0.751,0.693,0.244,1.164,0.732,269.0,475.0
2015-03-26,Dakar,Senegal,-17.4667,14.6667,[-17.9667 14.1667 -16.9667 15.1667],0.784,0.259,1.117,0.782,0.724,0.265,1.175,0.761,264.0,465.0
2015-03-27,Dakar,Senegal,-17.4667,14.6667,[-17.9667 14.1667 -16.9667 15.1667],0.736,0.235,1.117,0.747,0.711,0.269,1.162,0.742,269.0,476.0
2015-03-28,Dakar,Senegal,-17.4667,14.6667,[-17.9667 14.1667 -16.9667 15.1667],0.725,0.235,1.087,0.733,0.706,0.238,1.145,0.721,271.0,479.0
2015-03-29,Dakar,Senegal,-17.4667,14.6667,[-17.9667 14.1667 -16.9667 15.1667],0.68,0.18,1.081,0.692,0.645,0.242,1.09,0.691,297.0,510.0
2015-03-30,Dakar,Senegal,-17.4667,14.6667,[-17.9667 14.1667 -16.9667 15.1667],0.68,0.18,1.081,0.692,0.612,0.21,1.072,0.663,298.0,556.0
2015-03-31,Dakar,Senegal,-17.4667,14.6667,[-17.9667 14.1667 -16.9667 15.1667],0.692,0.207,1.05,0.678,0.612,0.2,1.103,0.666,319.0,524.0
2015-04-01,Dakar,Senegal,-17.4667,14.6667,[-17.9667 14.1667 -16.9667 15.1667],0.637,0.176,0.999,0.668,0.591,0.195,1.032,0.637,300.0,552.0
2015-04-02,Dakar,Senegal,-17.4667,14.6667,[-17.9667 14.1667 -16.9667 15.1667],0.694,0.214,1.023,0.685,0.605,0.198,1.041,0.64,287.0,531.0
2015-04-03,Dakar,Senegal,-17.4667,14.6667,[-17.9667 14.1667 -16.9667 15.1667],0.668,0.18,0.964,0.666,0.574,0.157,0.998,0.613,304.0,546.0
2015-04-04,Dakar,Senegal,-17.4667,14.6667,[-17.9667 14.1667 -16.9667 15.1667],0.662,0.191,0.956,0.635,0.554,0.158,0.956,0.579,292.0,542.0
2015-04-05,Dakar,Senegal,-17.4667,14.6667,[-17.9667 14.1667 -16.9667 15.1667],0.672,0.236,0.957,0.652,0.564,0.172,0.962,0.591,298.0,536.0
2015-04-06,Dakar,Senegal,-17.4667,14.6667,[-17.9667 14.1667 -16.9667 15.1667],0.694,0.252,0.96,0.689,0.561,0.168,0.938,0.581,297.0,543.0
2015-04-07,Dakar,Senegal,-17.4667,14.6667,[-17.9667 14.1667 -16.9667 15.1667],0.68,0.252,0.956,0.67,0.575,0.198,0.958,0.604,317.0,521.0
2015-04-08,Dakar,Senegal,-17.4667,14.6667,[-17.9667 14.1667 -16.9667 15.1667],0.636,0.245,0.915,0.641,0.581,0.206,0.945,0.607,295.0,545.0
2015-04-09,Dakar,Senegal,-17.4667,14.6667,[-17.9667 14.1667 -16.9667 15.1667],0.566,0.208,0.835,0.558,0.57,0.206,0.931,0.589,286.0,523.0
2015-04-10,Dakar,Senegal,-17.4667,14.6667,[-17.9667 14.1667 -16.9667 15.1667],0.552,0.191,0.794,0.537,0.573,0.206,0.924,0.584,293.0,545.0
2015-04-11,Dakar,Senegal,-17.4667,14.6667,[-17.9667 14.1667 -16.9667 15.1667],0.59,0.245,0.83,0.566,0.561,0.217,0.913,0.58,284.0,533.0
2015-04-12,Dakar,Senegal,-17.4667,14.6667,[-17.9667 14.1667 -16.9667 15.1667],0.597,0.245,0.826,0.574,0.546,0.207,0.878,0.57,288.0,538.0
2015-04-13,Dakar,Senegal,-17.4667,14.6667,[-17.9667 14.1667 -16.9667 15.1667],0.624,0.27,0.837,0.593,0.555,0.206,0.908,0.58,288.0,537.0
2015-04-14,Dakar,Senegal,-17.4667,14.6667,[-17.9667 14.1667 -16.9667 15.1667],0.606,0.245,0.831,0.576,0.572,0.232,0.9,0.589,311.0,521.0
2015-04-15,Dakar,Senegal,-17.4667,14.6667,[-17.9667 14.1667 -16.9667 15.1667],0.597,0.236,0.876,0.579,0.58,0.233,0.914,0.595,290.0,498.0
2015-04-16,Dakar,Senegal,-17.4667,14.6667,[-17.9667 14.1667 -16.9667 15.1667],0.597,0.236,0.876,0.579,0.58,0.233,0.929,0.6,290.0,445.0
2015-04-17,Dakar,Senegal,-17.4667,14.6667,[-17.9667 14.1667 -16.9667 15.1667],0.527,0.207,0.789,0.541,0.577,0.233,0.941,0.61,271.0,476.0
2015-04-18,Dakar,Senegal,-17.4667,14.6667,[-17.9667 14.1667 -16.9667 15.1667],0.59,0.242,0.831,0.57,0.579,0.234,0.948,0.613,259.0,457.0
2015-04-19,Dakar,Senegal,-17.4667,14.6667,[-17.9667 14.1667 -16.9667 15.1667],0.559,0.236,0.837,0.578,0.574,0.223,0.948,0.617,278.0,474.0
2015-04-20,Dakar,Senegal,-17.4667,14.6667,[-17.9667 14.1667 -16.9667 15.1667],0.553,0.26,0.888,0.594,0.567,0.231,0.947,0.616,271.0,473.0
2015-04-21,Dakar,Senegal,-17.4667,14.6667,[-17.9667 14.1667 -16.9667 15.1667],0.527,0.234,0.826,0.563,0.548,0.214,0.928,0.599,267.0,467.0
2015-04-22,Dakar,Senegal,-17.4667,14.6667,[-17.9667 14.1667 -16.9667 15.1667],0.547,0.207,0.91,0.583,0.544,0.195,0.942,0.593,268.0,478.0
2015-04-23,Dakar,Senegal,-17.4667,14.6667,[-17.9667 14.1667 -16.9667 15.1667],0.523,0.203,0.91,0.575,0.534,0.184,0.942,0.585,284.0,455.0
2015-04-24,Dakar,Senegal,-17.4667,14.6667,[-17.9667 14.1667 -16.9667 15.1667],0.611,0.227,0.991,0.635,0.548,0.182,0.94,0.59,261.0,477.0
2015-04-25,Dakar,Senegal,-17.4667,14.6667,[-17.9667 14.1667 -16.9667 15.1667],0.573,0.251,0.938,0.604,0.529,0.181,0.937,0.582,246.0,456.0
2015-04-26,Dakar,Senegal,-17.4667,14.6667,[-17.9667 14.1667 -16.9667 15.1667],0.524,0.203,0.876,0.575,0.534,0.169,0.911,0.576,249.0,479.0
2015-04-27,Dakar,Senegal,-17.4667,14.6667,[-17.9667 14.1667 -16.9667 15.1667],0.524,0.207,0.876,0.575,0.559,0.171,0.966,0.587,235.0,463.0
2015-04-28,Dakar,Senegal,-17.4667,14.6667,[-17.9667 14.1667 -16.9667 15.1667],0.565,0.248,0.95,0.627,0.564,0.177,0.961,0.594,237.0,471.0
2015-04-29,Dakar,Senegal,-17.4667,14.6667,[-17.9667 14.1667 -16.9667 15.1667],0.579,0.266,0.97,0.661,0.547,0.172,0.955,0.588,240.0,468.0
2015-04-30,Dakar,Senegal,-17.4667,14.6667,[-17.9667 14.1667 -16.9667 15.1667],0.583,0.266,0.962,0.662,0.565,0.191,0.946,0.596,246.0,496.0
2015-05-01,Dakar,Senegal,-17.4667,14.6667,[-17.9667 14.1667 -16.9667 15.1667],0.584,0.266,0.962,0.664,0.58,0.202,0.947,0.613,254.0,540.0
2015-05-02,Dakar,Senegal,-17.4667,14.6667,[-17.9667 14.1667 -16.9667 15.1667],0.573,0.264,0.947,0.638,0.57,0.204,0.928,0.596,274.0,508.0
2015-05-03,Dakar,Senegal,-17.4667,14.6667,[-17.9667 14.1667 -16.9667 15.1667],0.556,0.232,0.91,0.625,0.552,0.222,0.907,0.591,252.0,535.0
2015-05-04,Dakar,Senegal,-17.4667,14.6667,[-17.9667 14.1667 -16.9667 15.1667],0.585,0.243,0.996,0.671,0.557,0.219,0.929,0.599,239.0,518.0
2015-05-05,Dakar,Senegal,-17.4667,14.6667,[-17.9667 14.1667 -16.9667 15.1667],0.573,0.217,0.97,0.656,0.547,0.194,0.936,0.581,256.0,533.0
2015-05-06,Dakar,Senegal,-17.4667,14.6667,[-17.9667 14.1667 -16.9667 15.1667],0.584,0.239,0.976,0.673,0.571,0.23,0.949,0.602,259.0,533.0
2015-05-07,Dakar,Senegal,-17.4667,14.6667,[-17.9667 14.1667 -16.9667 15.1667],0.573,0.248,0.958,0.669,0.561,0.226,0.928,0.591,265.0,525.0
2015-05-08,Dakar,Senegal,-17.4667,14.6667,[-17.9667 14.1667 -16.9667 15.1667],0.583,0.264,0.947,0.687,0.558,0.229,0.918,0.59,272.0,535.0
2015-05-09,Dakar,Senegal,-17.4667,14.6667,[-17.9667 14.1667 -16.9667 15.1667],0.573,0.264,0.904,0.668,0.567,0.245,0.928,0.609,293.0,511.0
2015-05-10,Dakar,Senegal,-17.4667,14.6667,[-17.9667 14.1667 -16.9667 15.1667],0.616,0.248,0.999,0.695,0.58,0.24,0.95,0.618,277.0,531.0
2015-05-11,Dakar,Senegal,-17.4667,14.6667,[-17.9667 14.1667 -16.9667 15.1667],0.58,0.274,0.909,0.673,0.587,0.267,0.939,0.624,279.0,515.0
2015-05-12,Dakar,Senegal,-17.4667,14.6667,[-17.9667 14.1667 -16.9667 15.1667],0.58,0.274,0.913,0.682,0.597,0.277,0.948,0.638,287.0,543.0
2015-05-13,Dakar,Senegal,-17.4667,14.6667,[-17.9667 14.1667 -16.9667 15.1667],0.522,0.23,0.9,0.62,0.583,0.266,0.946,0.633,279.0,527.0
2015-05-14,Dakar,Senegal,-17.4667,14.6667,[-17.9667 14.1667 -16.9667 15.1667],0.514,0.217,0.887,0.611,0.588,0.256,0.929,0.633,279.0,538.0
2015-05-15,Dakar,Senegal,-17.4667,14.6667,[-17.9667 14.1667 -16.9667 15.1667],0.506,0.207,0.9,0.631,0.586,0.23,0.936,0.631,301.0,540.0
2015-05-16,Dakar,Senegal,-17.4667,14.6667,[-17.9667 14.1667 -16.9667 15.1667],0.514,0.21,0.9,0.631,0.577,0.238,0.925,0.62,315.0,524.0
2015-05-17,Dakar,Senegal,-17.4667,14.6667,[-17.9667 14.1667 -16.9667 15.1667],0.522,0.218,0.901,0.651,0.573,0.237,0.924,0.621,295.0,502.0
2015-05-18,Dakar,Senegal,-17.4667,14.6667,[-17.9667 14.1667 -16.9667 15.1667],0.522,0.218,0.901,0.651,0.589,0.244,0.967,0.641,295.0,449.0
2015-05-19,Dakar,Senegal,-17.4667,14.6667,[-17.9667 14.1667 -16.9667 15.1667],0.48,0.207,0.848,0.606,0.566,0.233,0.923,0.622,275.0,474.0
2015-05-20,Dakar,Senegal,-17.4667,14.6667,[-17.9667 14.1667 -16.9667 15.1667],0.471,0.216,0.849,0.584,0.566,0.243,0.926,0.628,260.0,455.0
2015-05-21,Dakar,Senegal,-17.4667,14.6667,[-17.9667 14.1667 -16.9667 15.1667],0.48,0.21,0.848,0.583,0.567,0.234,0.936,0.624,276.0,468.0
2015-05-22,Dakar,Senegal,-17.4667,14.6667,[-17.9667 14.1667 -16.9667 15.1667],0.491,0.239,0.85,0.599,0.567,0.254,0.923,0.629,268.0,467.0
2015-05-23,Dakar,Senegal,-17.4667,14.6667,[-17.9667 14.1667 -16.9667 15.1667],0.491,0.251,0.895,0.604,0.574,0.266,0.951,0.638,271.0,460.0
2015-05-24,Dakar,Senegal,-17.4667,14.6667,[-17.9667 14.1667 -16.9667 15.1667],0.494,0.251,0.897,0.61,0.572,0.249,0.931,0.625,271.0,471.0
2015-05-25,Dakar,Senegal,-17.4667,14.6667,[-17.9667 14.1667 -16.9667 15.1667],0.493,0.25,0.901,0.617,0.562,0.251,0.919,0.617,293.0,449.0
2015-05-26,Dakar,Senegal,-17.4667,14.6667,[-17.9667 14.1667 -16.9667 15.1667],0.493,0.239,0.979,0.648,0.558,0.237,0.918,0.61,266.0,465.0
2015-05-27,Dakar,Senegal,-17.4667,14.6667,[-17.9667 14.1667 -16.9667 15.1667],0.524,0.254,0.912,0.646,0.538,0.235,0.911,0.6,268.0,445.0
2015-05-28,Dakar,Senegal,-17.4667,14.6667,[-17.9667 14.1667 -16.9667 15.1667],0.561,0.285,0.974,0.683,0.535,0.236,0.908,0.593,275.0,473.0
2015-05-29,Dakar,Senegal,-17.4667,14.6667,[-17.9667 14.1667 -16.9667 15.1667],0.564,0.298,0.921,0.679,0.534,0.248,0.909,0.596,262.0,459.0
2015-05-30,Dakar,Senegal,-17.4667,14.6667,[-17.9667 14.1667 -16.9667 15.1667],0.56,0.285,0.912,0.658,0.525,0.238,0.91,0.6,262.0,468.0
2015-05-31,Dakar,Senegal,-17.4667,14.6667,[-17.9667 14.1667 -16.9667 15.1667],0.55,0.285,0.897,0.64,0.527,0.226,0.893,0.597,267.0,470.0
2015-06-01,Dakar,Senegal,-17.4667,14.6667,[-17.9667 14.1667 -16.9667 15.1667],0.538,0.285,0.879,0.621,0.517,0.227,0.87,0.591,290.0,499.0
2015-06-02,Dakar,Senegal,-17.4667,14.6667,[-17.9667 14.1667 -16.9667 15.1667],0.538,0.285,0.881,0.627,0.516,0.211,0.854,0.576,297.0,543.0
2015-06-03,Dakar,Senegal,-17.4667,14.6667,[-17.9667 14.1667 -16.9667 15.1667],0.55,0.285,0.898,0.642,0.544,0.221,0.891,0.597,313.0,513.0
2015-06-04,Dakar,Senegal,-17.4667,14.6667,[-17.9667 14.1667 -16.9667 15.1667],0.544,0.285,0.921,0.649,0.532,0.215,0.88,0.584,292.0,539.0
2015-06-05,Dakar,Senegal,-17.4667,14.6667,[-17.9667 14.1667 -16.9667 15.1667],0.581,0.314,1.009,0.678,0.533,0.205,0.897,0.587,278.0,522.0
2015-06-06,Dakar,Senegal,-17.4667,14.6667,[-17.9667 14.1667 -16.9667 15.1667],0.564,0.285,1.021,0.664,0.538,0.18,0.921,0.588,293.0,537.0
2015-06-07,Dakar,Senegal,-17.4667,14.6667,[-17.9667 14.1667 -16.9667 15.1667],0.573,0.285,0.981,0.661,0.535,0.192,0.893,0.577,284.0,536.0
2015-06-08,Dakar,Senegal,-17.4667,14.6667,[-17.9667 14.1667 -16.9667 15.1667],0.564,0.273,0.942,0.642,0.531,0.174,0.873,0.562,289.0,530.0
2015-06-09,Dakar,Senegal,-17.4667,14.6667,[-17.9667 14.1667 -16.9667 15.1667],0.572,0.285,0.934,0.644,0.526,0.168,0.897,0.569,275.0,540.0
2015-06-10,Dakar,Senegal,-17.4667,14.6667,[-17.9667 14.1667 -16.9667 15.1667],0.564,0.271,0.942,0.606,0.534,0.209,0.921,0.588,296.0,518.0
2015-06-11,Dakar,Senegal,-17.4667,14.6667,[-17.9667 14.1667 -16.9667 15.1667],0.572,0.186,1.06,0.603,0.547,0.177,0.94,0.586,269.0,539.0
2015-06-12,Dakar,Senegal,-17.4667,14.6667,[-17.9667 14.1667 -16.9667 15.1667],0.558,0.273,0.921,0.583,0.562,0.203,0.942,0.6,269.0,519.0
2015-06-13,Dakar,Senegal,-17.4667,14.6667,[-17.9667 14.1667 -16.9667 15.1667],0.558,0.271,0.946,0.593,0.58,0.215,0.941,0.608,284.0,546.0
2015-06-14,Dakar,Senegal,-17.4667,14.6667,[-17.9667 14.1667 -16.9667 15.1667],0.572,0.313,0.951,0.62,0.594,0.219,0.93,0.608,272.0,533.0
2015-06-15,Dakar,Senegal,-17.4667,14.6667,[-17.9667 14.1667 -16.9667 15.1667],0.585,0.321,0.977,0.643,0.595,0.22,0.938,0.61,275.0,541.0
2015-06-16,Dakar,Senegal,-17.4667,14.6667,[-17.9667 14.1667 -16.9667 15.1667],0.642,0.342,0.993,0.669,0.616,0.224,0.959,0.62,279.0,542.0
2015-06-17,Dakar,Senegal,-17.4667,14.6667,[-17.9667 14.1667 -16.9667 15.1667],0.626,0.349,0.977,0.667,0.624,0.261,0.954,0.632,296.0,528.0
2015-06-18,Dakar,Senegal,-17.4667,14.6667,[-17.9667 14.1667 -16.9667 15.1667],0.626,0.345,0.959,0.654,0.628,0.243,0.952,0.633,280.0,506.0
2015-06-19,Dakar,Senegal,-17.4667,14.6667,[-17.9667 14.1667 -16.9667 15.1667],0.626,0.345,0.959,0.654,0.639,0.26,0.991,0.651,280.0,454.0
2015-06-20,Dakar,Senegal,-17.4667,14.6667,[-17.9667 14.1667 -16.9667 15.1667],0.563,0.284,0.863,0.601,0.628,0.244,0.977,0.651,259.0,481.0